Location: Clouds Rest
(37.7677°N, 119.4893°W)
Time: 05:42:46
(UTC+00:00)

Daily predictions for brighter satellites

Satellite Brightness Start Highest point End
(mag) Time Altitude Azimuth Time Altitude Azimuth Time Altitude Azimuth
COSMO-SKYMED 1 4.3 01:09:58 10° ENE 01:11:55 13° E 01:13:51 10° ESE
ARIANE 5 R/B 2.7 01:08:16 10° SE 01:13:01 47° ENE 01:17:46 10° N
SAR-Lupe-3 4.2 01:10:31 10° NNE 01:13:04 42° E 01:15:35 10° S
Tsikada Rocket 4.1 01:11:47 10° N 01:18:07 60° E 01:24:21 10° SSE
Cosmos 2016 Rocket 4.3 01:12:28 10° S 01:18:43 77° W 01:25:06 10° N
Cosmos 1812 4.0 01:17:48 10° ESE 01:19:02 12° E 01:20:15 10° ENE
SL-4 R/B 1.5 01:16:17 10° NW 01:19:43 72° NE 01:23:20 10° SE
Cosmos 1025 Rocket 3.9 01:15:33 10° NNW 01:19:45 53° W 01:23:53 10° S
CORIOLIS 4.1 01:15:15 10° SSE 01:20:35 74° ENE 01:25:57 10° N
SL-16 R/B 3.7 01:15:48 10° N 01:21:43 45° WNW 01:27:34 10° SW
Cosmos 2278 Rocket 2.7 01:20:18 10° S 01:25:27 38° ESE 01:30:38 10° NE
Tiangong -0.8 01:22:45 10° W 01:25:45 40° SSW 01:28:43 10° SE
Cosmos 2082 Rocket 3.9 01:23:23 10° NNE 01:25:47 13° NE 01:28:04 10° ENE
SL-12 R/B(2) 4.2 01:20:20 10° SSW 01:27:49 67° ESE 01:36:47 10° NE
IGS 5A 4.2 01:25:04 10° S 01:28:58 56° W 01:32:54 10° NNW
OAO 2 Rocket 3.8 01:24:21 10° WSW 01:29:15 55° S 01:34:07 11° E
Cosmos 1943 Rocket 2.6 01:24:09 10° S 01:29:26 43° ESE 01:34:42 10° NE
CZ-4C R/B 4.4 01:30:43 10° NW 01:32:26 12° NNW 01:34:17 10° N
YAOGAN 1 3.9 01:31:07 10° ESE 01:34:00 18° ENE 01:36:53 10° NNE
IRS-1C 4.1 01:30:06 10° SSE 01:35:24 78° ENE 01:40:44 10° N
SPOT 1/Viking Rocket 4.2 01:31:14 10° SE 01:35:42 31° ENE 01:40:12 10° N
Cosmos 44 Rocket 3.8 01:32:15 10° S 01:36:37 39° ESE 01:40:55 11° NE
SAR-Lupe-1 4.0 01:36:03 10° SSE 01:39:35 90° E 01:43:10 10° NNW
SMAP 3.3 01:35:17 10° S 01:39:54 74° WSW 01:44:35 10° NNW
RESURS DK-1 3.8 01:38:05 10° NNE 01:40:39 16° NE 01:41:22 16° ENE
Cosmos 407 Rocket 3.5 01:38:09 10° S 01:43:19 67° ESE 01:48:27 10° NNE
Okean 2 Rocket 4.4 01:41:12 10° SE 01:44:12 18° E 01:45:20 17° ENE
ISS -3.4 01:41:22 10° WSW 01:44:40 61° NW 01:47:13 16° NE
CZ-2D R/B 2.9 01:42:08 10° S 01:45:16 76° WSW 01:48:26 10° NNW
Geosat FO 4.4 01:43:26 10° SE 01:46:11 40° ENE 01:48:55 10° N
CZ-2D R/B 3.9 01:46:54 10° SE 01:50:38 36° ENE 01:54:27 10° N
SJ 16-02 2.5 01:47:25 10° SSE 01:50:42 22° E 01:51:41 20° ENE
Landsat 7 3.9 01:48:33 10° S 01:53:11 76° W 01:57:51 10° NNW
SJ-12 4.1 01:49:26 10° S 01:53:12 68° WSW 01:56:59 10° NNW
Helios 1A Rocket 2.8 01:51:39 14° NNE 01:54:16 40° E 01:57:27 10° S
Spot 4 Rocket 4.4 01:52:27 10° SE 01:57:12 41° ENE 02:01:57 10° N
Timation 2 Rocket 4.2 01:54:47 10° SSW 02:01:38 89° WNW 02:08:34 10° NNE
AQUARIUS 4.3 01:57:27 10° S 02:01:51 75° WSW 02:06:16 10° NNW
ATLAS 5 CENTAUR R/B 1.9 01:58:28 10° NNW 02:03:09 70° ENE 02:08:56 10° SE
DNEPR-1 R/B 4.5 02:04:10 10° NW 02:08:48 61° WSW 02:14:18 10° SSE
Cosmos 2058 3.2 02:05:25 10° N 02:09:08 37° E 02:12:49 10° SSE
Cosmos 1833 Rocket 3.2 02:04:10 10° NNW 02:09:44 62° WSW 02:15:16 10° S
Cosmos 371 Rocket 4.1 02:05:44 10° SSE 02:09:49 29° E 02:10:11 28° E
MOS 1 Rocket 3.1 02:07:01 10° S 02:11:16 83° WSW 02:15:38 10° NNW
USA 215 3.6 02:06:12 10° SE 02:12:41 66° SW 02:19:11 10° NW
Aureole 3 Rocket 2.6 02:14:36 10° SSW 02:17:47 63° W 02:20:18 14° N
Cosmos 304 Rocket 4.2 02:14:08 10° SSE 02:18:26 36° ESE 02:18:49 36° E
Cosmos 1763 Rocket 3.3 02:16:53 10° NNW 02:22:07 77° ENE 02:27:13 10° SSE
NOAA 6 4.2 02:17:34 10° SE 02:22:26 45° ENE 02:27:20 10° N
Cosmos 1400 Rocket 2.7 02:20:37 10° S 02:24:09 52° ESE 02:24:09 52° ESE
Cosmos 540 Rocket 3.3 02:19:32 10° NNW 02:24:39 67° ENE 02:29:42 10° SSE
OAO 3 Rocket 3.4 02:20:59 10° WSW 02:25:30 54° S 02:26:46 40° ESE
Cosmos 2151 Rocket 3.4 02:21:40 10° S 02:26:06 73° E 02:29:42 16° NNE
SJ-7 4.0 02:27:00 10° SSE 02:30:41 88° ENE 02:34:22 10° NNW
Cosmos 2251 Rocket 3.5 02:26:09 10° SSW 02:31:23 82° WNW 02:35:50 15° NNE
Sich 1 Rocket 3.6 02:28:46 10° S 02:33:09 55° E 02:33:12 55° E
Cosmos 1464 Rocket 3.9 02:27:02 10° S 02:33:21 86° E 02:39:39 10° N
SL-19 R/B 4.0 02:33:09 10° SSE 02:38:25 87° ENE 02:43:38 10° NNW
Geosat 4.0 02:40:39 53° ENE 02:40:40 53° ENE 02:45:32 10° NNW
Okean 1 Rocket 3.0 02:39:58 10° S 02:43:50 64° SE 02:43:50 64° SE
Cosmos 2034 Rocket 3.8 02:38:35 10° S 02:44:41 69° E 02:50:53 10° NNE
IRAS Rocket 4.5 02:41:19 10° S 02:46:52 70° WSW 02:52:25 10° NNW
COSMO-SKYMED 1 3.5 02:43:30 10° N 02:47:25 43° WNW 02:51:19 10° SW
Meteor 2-1 Rocket 4.2 02:42:51 10° S 02:48:35 61° E 02:49:52 49° NE
BREEZE-M DEB (TANK) 4.4 02:45:46 10° NW 02:48:36 24° N 02:48:40 24° N
DMSP B5D1-3 4.3 02:48:42 46° NNE 02:50:15 80° ESE 02:55:20 10° S
USA 281 3.9 02:54:09 34° NNE 02:54:09 34° NNE 02:58:44 10° N
H-II Stage 2 3.6 02:44:11 10° WSW 02:54:43 33° SSW 02:55:53 29° SSE
Cosmos 2278 Rocket 4.0 03:04:44 10° WSW 03:09:33 28° WNW 03:14:18 10° N
YAOGAN 1 4.1 03:05:40 10° SSW 03:09:33 35° W 03:13:28 10° NNW
Cosmos 468 Rocket 4.1 03:05:22 10° NNW 03:10:28 73° W 03:10:28 73° W
Cosmos 2082 Rocket 2.2 03:05:01 10° NNW 03:09:59 70° NNW 03:09:59 70° NNW
Cosmos 676 Rocket 4.2 03:07:47 10° SSW 03:13:04 69° WNW 03:13:18 67° NW
Cosmos 1932 4.3 03:06:50 10° SSW 03:13:08 85° ESE 03:13:19 83° ENE
Cosmos 1943 Rocket 4.1 03:08:43 10° WSW 03:13:17 25° WNW 03:17:51 10° N
OAO 2 Rocket 3.8 03:08:37 10° W 03:12:52 55° SW 03:12:52 55° SW
RESURS DK-1 4.2 03:14:31 10° NW 03:16:46 27° WNW 03:16:46 27° WNW
BREEZE-M DEB (TANK) 4.3 03:17:13 10° WNW 03:26:44 56° NNW 03:26:44 56° NNW
SJ 16-02 3.2 03:24:55 10° SW 03:28:18 27° WNW 03:28:18 27° WNW
BREEZE-M DEB (TANK) 4.5 03:19:45 10° WNW 03:33:21 63° N 03:33:21 63° N
Cosmos 2344 4.2 03:49:20 10° NNW 03:55:46 56° N 03:55:46 56° N
CZ-3 R/B 4.1 11:03:31 40° SSW 11:08:00 45° S 11:17:11 10° ESE
SJ 16-02 3.9 11:54:42 14° NE 11:56:17 17° ENE 11:59:02 10° ESE
